Home   Weather   Fairfax   Past weeks

Flag for USA Past Weather in Fairfax, Virginia, USA — Yesterday and Last 2 Weeks

Now
76 °F

Passing clouds.


Feels Like: 78 °F
Forecast: 63 / 83 °F
Wind: 6 mph from West

Location: Washington-Dulles International Airport

Current Time: Apr 28, 2017 at 12:14:31 pm

Latest Report: Apr 28, 2017 at 10:52 am


Visibility: 10 mi

Pressure: 30.04 "Hg

Humidity: 54%

Dew Point: 58 °F

Location of FairfaxLocation

Past Weather in Fairfax — Graph

°F

Fairfax Temperature Yesterday

Maximum temperature yesterday: 82 °F (at 3:52 pm)
Minimum temperature yesterday: 54 °F (at 4:09 am)
Average temperature yesterday: 67 °F

High & Low Weather Summary for the Past Weeks

 TemperatureHumidityPressure
High85 °F (Apr 16, 1:52 pm)97% (Apr 21, 3:52 am)30.43 "Hg (Apr 21, 3:52 am)
Low45 °F (Apr 14, 1:52 am)26% (Apr 13, 4:52 pm)29.71 "Hg (Apr 26, 3:52 am)
Average61 °F71%30.04 "Hg
* Reported Apr 13 10:52 am — Apr 28 10:52 am, Fairfax, Weather by CustomWeather, © 2017

Note: Actual official high and low records may vary slightly from our data, if they occured in-between our weather recording intervals... More about our weather records

Advertising

Fairfax Weather History for the Previous 24 Hours

Scroll right to see more
 ConditionsComfort  
Time TempWeatherWind HumidityBarometerVisibility
10:52 am
Fri, Apr 28
76 °FPassing clouds.6 mph54%30.04 "Hg10 mi
9:52 am72 °FPassing clouds.3 mph61%30.02 "Hg10 mi
8:52 am71 °FPassing clouds.7 mph66%30.02 "Hg10 mi
7:52 am66 °FPassing clouds.No wind84%30.00 "Hg8 mi
6:52 am58 °FFog.No wind97%29.96 "Hg3 mi
5:52 am60 °FPassing clouds.No wind93%29.94 "Hg8 mi
4:52 am60 °FClear.3 mph90%29.90 "Hg9 mi
3:52 am64 °FClear.No wind84%29.88 "Hg10 mi
2:52 am65 °FPassing clouds.6 mph81%29.85 "Hg10 mi
1:52 am67 °FPassing clouds.8 mph76%29.84 "Hg10 mi
12:52 am70 °FPassing clouds.8 mph68%29.83 "Hg10 mi
11:52 pm
Thu, Apr 27
71 °FPassing clouds.10 mph63%29.82 "Hg10 mi
10:52 pm73 °FPassing clouds.16 mph59%29.80 "Hg10 mi
9:52 pm75 °FMostly cloudy.13 mph54%29.79 "Hg10 mi
8:52 pm75 °FPassing clouds.9 mph54%29.78 "Hg10 mi
7:52 pm77 °FSunny.14 mph52%29.76 "Hg10 mi
6:52 pm78 °FBroken clouds.7 mph50%29.75 "Hg10 mi
5:52 pm80 °FBroken clouds.14 mph45%29.75 "Hg10 mi
4:52 pm82 °FBroken clouds.17 mph44%29.74 "Hg10 mi
3:52 pm82 °FBroken clouds.15 mph48%29.75 "Hg10 mi
2:52 pm80 °FPartly sunny.16 mph52%29.77 "Hg10 mi
1:52 pm78 °FBroken clouds.7 mph64%29.78 "Hg10 mi
12:52 pm75 °FBroken clouds.6 mph66%29.80 "Hg10 mi
Weather by CustomWeather, © 2017

See weather overviewHow to use our weather pages